Tracking 22780 objects as of 11-Apr-2021
HD Live streaming from Space Station
objects crossing your sky now

SL-12 DEB

Track SL-12 DEB now!
10-day predictions


NORAD ID: 24833
Int'l Code: 1997-028F
Perigee: 1,266.3 km
Apogee: 3,003.3 km
Inclination: 63.3 °
Period: 130.1 minutes
Semi major axis: 8505 km
RCS: 0.8365 m2 (medium)
Launch date: June 6, 1997
Source: Commonwealth of Independent States (former USSR) (CIS)
Launch site: TYURATAM MISSILE AND SPACE COMPLEX (TTMTR)

Note: This is SATELLITE DEBRIS
aabbcc
Your satellite tracking list
Your tracking list is empty




NASA's NSSDC Master Catalog

Two Line Element Set (TLE):
1 24833U 97028F   21100.52919140  .00000065  00000-0  14142-2 0  9996
2 24833  63.3396 194.4604 1021049  28.2174 346.6341 11.06696010963422
Source of the keplerian elements: AFSPC